Location: Sungai Bunut
(2.6333°N, 113.7333°E)
Time: 01:38:52
(UTC+00:00)

Vanguard 1 - Pass Details

Date: 08 December 2023
Orbit: 653 x 3825 km, 34.3° (Epoch: 03 March)

Event Time Altitude Azimuth Distance (km) Brightness Sun altitude
Rises 11:16:09 0° 305° (NW) 5,961 14.5 -14.7°
Reaches altitude 10° 11:21:32 10° 321° (NW) 5,489 14.1 -15.9°
Maximum altitude 11:33:39 21° 5° (N) 5,510 13.6 -18.7°
Enters shadow 11:44:12 15° 36° (NE) 6,402 13.7 -21.1°
